WXM80 ListenWXM80 Stop

You find our weather info also at:

UK Metoffice

WeatherCloud

Weather Underground

Northeastern Weather Network

AWEKAS

Citizen Weather Observer Program (CWOP)

HAMweather, WeatherForYou, PWS Weather


Weather Underground History page Text

Daily Summary for January 23, 2018 Units:  Metric    English   Both
« Previous Day
Next Day »
Daily Weekly Monthly Yearly Custom
  High: Low: Average:
Temperature: 13.8 °C 2.3 °C 8.6 °C
Dew Point: 13.6 °C 0.9 °C 7.5 °C
Humidity: 99 % 67 % 93 %
Wind Speed: 18.7 km/h 0 km/h 6.9 km/h
Wind Gust: 35.2 km/h - -
Wind:- - South
Pressure: 1010.4 hPa 990.7 hPa -
Precipitation: 7.62 mm    
Historical Graphs
 
 
Tabular Data for January 23, 2018
Time Temperature Dew Point Pressure Wind Wind Speed Wind Gust Humidity Rainfall Rate (Hourly)
00:03 2.4 °C 2 °C 1010.4 hPa East 4.2 km/h 9.3 km/h 97 % 0 mm
00:08 2.4 °C 2 °C 1010.4 hPa East 5.3 km/h 7.4 km/h 97 % 0 mm
00:18 2.4 °C 2 °C 1009.7 hPa East 9 km/h 11.1 km/h 97 % 0 mm
00:23 2.4 °C 2 °C 1009.7 hPa East 6.8 km/h 9.3 km/h 97 % 0 mm
00:28 2.4 °C 2 °C 1009.7 hPa East 6.4 km/h 9.3 km/h 97 % 0 mm
00:33 2.4 °C 2 °C 1009.4 hPa East 4.7 km/h 9.3 km/h 97 % 0 mm
00:38 2.4 °C 2 °C 1009.7 hPa East 4.8 km/h 7.4 km/h 97 % 0 mm
00:40 2.4 °C 2 °C 1009.4 hPa East 8.2 km/h 9.7 km/h 97 % 0 mm
00:50 2.5 °C 2.1 °C 1009 hPa East 3.1 km/h 5.6 km/h 97 % 0 mm
00:55 2.6 °C 2.1 °C 1009 hPa East 1.4 km/h 3.7 km/h 97 % 0 mm
01:05 2.6 °C 2.1 °C 1008.7 hPa ENE 3.5 km/h 5.6 km/h 97 % 0 mm
01:10 2.5 °C 2.2 °C 1008.7 hPa ENE 2.9 km/h 5.6 km/h 98 % 0 mm
01:15 2.5 °C 2.1 °C 1008.7 hPa ENE 2.1 km/h 5.6 km/h 97 % 0 mm
01:20 2.5 °C 2.2 °C 1008.7 hPa ENE 4 km/h 5.6 km/h 98 % 0 mm
01:25 2.5 °C 2.2 °C 1008.4 hPa ENE 4.7 km/h 5.6 km/h 98 % 0 mm
01:30 2.4 °C 2.2 °C 1008.7 hPa ENE 2.4 km/h 5.6 km/h 98 % 0 mm
01:35 2.4 °C 1.9 °C 1008.4 hPa ENE 3.7 km/h 5.6 km/h 97 % 0 mm
01:41 2.4 °C 1.9 °C 1008 hPa ENE 3.2 km/h 6.4 km/h 97 % 0 mm
01:46 2.3 °C 1.9 °C 1007.7 hPa ENE 3.2 km/h 4.8 km/h 97 % 0 mm
01:55 2.3 °C 1.9 °C 1007.3 hPa ENE 4.8 km/h 9.7 km/h 97 % 0 mm
02:01 2.4 °C 1.9 °C 1007.3 hPa East 6.9 km/h 11.1 km/h 97 % 0 mm
02:06 2.4 °C 2 °C 1007.3 hPa ENE 3.4 km/h 5.6 km/h 97 % 0 mm
02:11 2.4 °C 2.2 °C 1007.3 hPa East 4.7 km/h 7.4 km/h 98 % 0 mm
02:16 2.5 °C 2.2 °C 1007.3 hPa ENE 4.2 km/h 5.6 km/h 98 % 0 mm
02:21 2.6 °C 2.3 °C 1007.3 hPa ENE 3.5 km/h 5.6 km/h 98 % 0 mm
02:26 2.6 °C 2.3 °C 1007 hPa ENE 2.9 km/h 5.6 km/h 98 % 0 mm
02:31 2.6 °C 2.3 °C 1007.3 hPa ENE 1.8 km/h 3.7 km/h 98 % 0 mm
02:36 2.7 °C 2.4 °C 1007 hPa ENE 0.8 km/h 5.6 km/h 98 % 0 mm
02:46 2.8 °C 2.5 °C 1007 hPa ENE 4.8 km/h 5.6 km/h 98 % 0 mm
02:51 2.8 °C 2.5 °C 1007 hPa ENE 3.1 km/h 5.6 km/h 98 % 0 mm
02:56 2.8 °C 2.5 °C 1006.7 hPa ENE 2.4 km/h 4.8 km/h 98 % 0 mm
03:01 2.8 °C 2.5 °C 1006.3 hPa ENE 1.8 km/h 3.7 km/h 98 % 0 mm
03:06 2.8 °C 2.5 °C 1006.3 hPa ENE 3.1 km/h 5.6 km/h 98 % 0 mm
03:11 2.8 °C 2.5 °C 1006 hPa ENE 2.7 km/h 5.6 km/h 98 % 0 mm
03:16 2.8 °C 2.5 °C 1006 hPa ENE 4.2 km/h 5.6 km/h 98 % 0 mm
03:21 2.8 °C 2.5 °C 1006 hPa ENE 3.5 km/h 5.6 km/h 98 % 0 mm
03:26 2.8 °C 2.5 °C 1006 hPa ENE 1.4 km/h 3.7 km/h 98 % 0 mm
03:37 2.8 °C 2.5 °C 1006 hPa Calm     98 % 0 mm
03:42 2.8 °C 2.5 °C 1006 hPa Calm     98 % 0 mm
03:47 2.8 °C 2.5 °C 1006 hPa Calm     98 % 0 mm
03:52 2.8 °C 2.6 °C 1005.3 hPa ENE 2.6 km/h 5.6 km/h 98 % 0 mm
03:57 2.8 °C 2.6 °C 1005.3 hPa ENE 3.2 km/h 5.6 km/h 98 % 0 mm
04:02 2.8 °C 2.6 °C 1005.3 hPa ENE 2.1 km/h 5.6 km/h 98 % 0 mm
04:07 2.8 °C 2.6 °C 1005.3 hPa ENE 3.7 km/h 5.6 km/h 98 % 0 mm
04:17 2.8 °C 2.6 °C 1005 hPa ENE 2.6 km/h 5.6 km/h 98 % 0 mm
04:22 2.8 °C 2.6 °C 1005 hPa ENE 5 km/h 8 km/h 98 % 0 mm
04:27 2.8 °C 2.6 °C 1004.6 hPa ENE 3.5 km/h 6.4 km/h 98 % 0 mm
04:32 2.9 °C 2.6 °C 1004.6 hPa ENE 4.7 km/h 5.6 km/h 98 % 0 mm
04:37 2.9 °C 2.7 °C 1004.3 hPa NE 3.2 km/h 5.6 km/h 98 % 0 mm
04:42 3 °C 2.7 °C 1004.3 hPa ENE 4.3 km/h 5.6 km/h 98 % 0 mm
04:47 3 °C 2.7 °C 1003.9 hPa ENE 6.9 km/h 11.1 km/h 98 % 0 mm
04:52 3.1 °C 2.8 °C 1004.3 hPa ENE 2.4 km/h 5.6 km/h 98 % 0 mm
04:57 3.1 °C 2.8 °C 1004.3 hPa ENE 0.8 km/h 1.9 km/h 98 % 0 mm
05:07 3.1 °C 2.8 °C 1003.6 hPa Calm     98 % 0 mm
05:13 3.1 °C 2.8 °C 1003.6 hPa Calm     98 % 0 mm
05:18 3.2 °C 2.9 °C 1003.6 hPa Calm   1.9 km/h 98 % 0 mm
05:23 3.2 °C 2.9 °C 1003.9 hPa NE 2.1 km/h 5.6 km/h 98 % 0 mm
05:28 3.2 °C 2.9 °C 1003.6 hPa Calm   3.7 km/h 98 % 0 mm
05:33 3.2 °C 2.9 °C 1003.6 hPa NNE 2.7 km/h 5.6 km/h 98 % 0 mm
05:38 3.2 °C 2.9 °C 1003.3 hPa NNE 2.3 km/h 3.7 km/h 98 % 0 mm
05:43 3.2 °C 2.9 °C 1003.3 hPa NE 1.3 km/h 3.7 km/h 98 % 0 mm
05:53 3.1 °C 2.8 °C 1003.3 hPa Calm   1.9 km/h 98 % 0 mm
05:58 3.1 °C 2.8 °C 1002.9 hPa NE 1.6 km/h 1.9 km/h 98 % 0 mm
06:03 3.1 °C 2.8 °C 1002.6 hPa ENE 2.9 km/h 5.6 km/h 98 % 0 mm
06:13 3.1 °C 2.8 °C 1002.6 hPa NE 1.9 km/h 4.8 km/h 98 % 0 mm
06:18 3.1 °C 2.8 °C 1002.6 hPa NE 1.8 km/h 3.2 km/h 98 % 0 mm
06:28 3.1 °C 2.8 °C 1002.3 hPa Calm   1.9 km/h 98 % 0 mm
06:33 3.1 °C 2.8 °C 1001.9 hPa Calm     98 % 0 mm
06:38 3.1 °C 2.8 °C 1001.9 hPa Calm   1.9 km/h 98 % 0 mm
06:43 3.2 °C 2.9 °C 1001.6 hPa NE 1 km/h 4.8 km/h 98 % 0 mm
06:48 3.3 °C 3 °C 1001.6 hPa NNE 1.3 km/h 5.6 km/h 98 % 0 mm
06:54 3.4 °C 3.1 °C 1001.2 hPa NNE 2.4 km/h 3.7 km/h 98 % 0 mm
06:59 3.5 °C 3.2 °C 1001.2 hPa NE 0.2 km/h 3.7 km/h 98 % 0 mm
07:04 3.6 °C 3.3 °C 1000.9 hPa SSE 4.2 km/h 7.4 km/h 98 % 0 mm
07:09 4.9 °C 4.6 °C 1000.9 hPa SSW 3.7 km/h 9.3 km/h 98 % 0 mm
07:19 8.9 °C 8.6 °C 1000.6 hPa SSW 6.3 km/h 13 km/h 98 % 0 mm
07:24 10 °C 9.8 °C 1000.2 hPa SSE 13.7 km/h 20.4 km/h 99 % 0 mm
07:29 10.7 °C 10.6 °C 1000.2 hPa South 8.7 km/h 12.9 km/h 99 % 0 mm
07:34 11.2 °C 11 °C 1000.2 hPa SSE 7.9 km/h 16.7 km/h 99 % 0 mm
07:39 11.3 °C 11.2 °C 999.9 hPa SSW 10.3 km/h 14.8 km/h 99 % 0 mm
07:44 11.7 °C 11.5 °C 1000.2 hPa SSW 13.7 km/h 25.9 km/h 99 % 0 mm
07:49 11.8 °C 11.6 °C 1000.2 hPa South 8.9 km/h 14.5 km/h 99 % 0.25 mm
07:54 11.8 °C 11.7 °C 999.9 hPa SSE 16.1 km/h 16.7 km/h 99 % 0.76 mm
07:59 11.9 °C 11.8 °C 999.9 hPa South 12.6 km/h 20.9 km/h 99 % 1.02 mm
08:04 12.1 °C 11.9 °C 999.5 hPa SE 17.4 km/h 24.1 km/h 99 % 1.02 mm
08:09 12.2 °C 12.1 °C 999.5 hPa South 12.4 km/h 14.8 km/h 99 % 1.02 mm
08:14 12.4 °C 12.3 °C 999.5 hPa SSW 13.2 km/h 18.5 km/h 99 % 1.02 mm
08:19 12.7 °C 12.5 °C 999.2 hPa South 10.1 km/h 19.3 km/h 99 % 1.02 mm
08:24 12.7 °C 12.5 °C 999.2 hPa South 10.6 km/h 22.2 km/h 99 % 1.02 mm
08:29 12.7 °C 12.5 °C 999.2 hPa South 10 km/h 18.5 km/h 99 % 1.02 mm
08:35 12.7 °C 12.6 °C 998.9 hPa SSW 9.8 km/h 20.4 km/h 99 % 1.02 mm
08:40 12.8 °C 12.6 °C 998.9 hPa SSW 8.7 km/h 22.2 km/h 99 % 1.02 mm
08:45 12.9 °C 12.7 °C 998.9 hPa South 18.7 km/h 35.2 km/h 99 % 1.02 mm
08:50 13 °C 12.8 °C 998.9 hPa SSE 8.4 km/h 22.2 km/h 99 % 0.76 mm
08:55 13.2 °C 13 °C 998.9 hPa South 10.3 km/h 18.5 km/h 99 % 0.25 mm
09:00 13.2 °C 13.1 °C 998.9 hPa SSW 10.3 km/h 18.5 km/h 99 % 0.25 mm
09:05 13.3 °C 13.2 °C 998.5 hPa SSE 12.4 km/h 22.2 km/h 99 % 0.25 mm
09:15 13.4 °C 13.3 °C 998.5 hPa SSW 14.8 km/h 24.1 km/h 99 % 0.51 mm
09:20 13.4 °C 13.3 °C 998.2 hPa SSW 10.6 km/h 24.1 km/h 99 % 0.51 mm
09:25 13.5 °C 13.3 °C 998.2 hPa South 13.4 km/h 20.9 km/h 99 % 0.76 mm
09:35 13.4 °C 13.3 °C 998.2 hPa South 10.8 km/h 18.5 km/h 99 % 1.02 mm
09:40 13.4 °C 13.3 °C 997.9 hPa South 15.1 km/h 31.5 km/h 99 % 1.52 mm
09:45 13.5 °C 13.3 °C 997.9 hPa SSE 9 km/h 18.5 km/h 99 % 2.03 mm
09:50 13.5 °C 13.3 °C 997.9 hPa South 13.2 km/h 20.4 km/h 99 % 2.29 mm
10:01 13.7 °C 13.5 °C 997.9 hPa SSW 16.3 km/h 25.9 km/h 99 % 2.54 mm
10:06 13.7 °C 13.5 °C 997.9 hPa SSW 10.8 km/h 24.1 km/h 99 % 2.79 mm
10:11 13.7 °C 13.5 °C 997.5 hPa South 17.1 km/h 27.8 km/h 99 % 2.79 mm
10:16 13.7 °C 13.5 °C 997.2 hPa SSE 9.8 km/h 29.6 km/h 99 % 2.79 mm
10:21 13.7 °C 13.5 °C 997.2 hPa SSW 9.7 km/h 20.4 km/h 99 % 2.79 mm
10:26 13.7 °C 13.5 °C 997.2 hPa SSW 8.9 km/h 18.5 km/h 99 % 2.79 mm
10:31 13.6 °C 13.4 °C 996.8 hPa South 13 km/h 17.7 km/h 99 % 2.54 mm
10:36 13.6 °C 13.4 °C 996.8 hPa SW 9 km/h 24.1 km/h 99 % 2.29 mm
10:41 13.6 °C 13.4 °C 996.8 hPa South 6 km/h 20.4 km/h 99 % 2.03 mm
10:47 13.6 °C 13.4 °C 997.2 hPa SSW 15.9 km/h 24.1 km/h 99 % 1.78 mm
10:52 13.5 °C 13.3 °C 996.5 hPa SSW 11.4 km/h 18.5 km/h 99 % 1.78 mm
10:57 13.4 °C 13.2 °C 995.8 hPa SSW 14.8 km/h 27.8 km/h 99 % 1.52 mm
11:02 13.3 °C 12.9 °C 995.5 hPa SSW 13.5 km/h 31.5 km/h 98 % 1.78 mm
11:07 13.4 °C 13.1 °C 995.1 hPa South 12.9 km/h 25.9 km/h 98 % 1.78 mm
11:17 13.8 °C 13.6 °C 995.1 hPa SSW 11.9 km/h 29.6 km/h 99 % 2.03 mm
11:22 13.7 °C 13.6 °C 995.1 hPa SSE 16.3 km/h 27.4 km/h 99 % 2.03 mm
11:27 13.6 °C 13.3 °C 994.8 hPa SSW 18.3 km/h 29.6 km/h 98 % 2.29 mm
11:32 13.4 °C 13.1 °C 994.8 hPa SSW 12.4 km/h 25.7 km/h 98 % 2.29 mm
11:37 13.4 °C 13.1 °C 994.5 hPa South 15.3 km/h 25.9 km/h 98 % 2.54 mm
11:42 13.3 °C 12.9 °C 994.1 hPa SSW 13.7 km/h 31.5 km/h 98 % 2.29 mm
11:47 13.3 °C 12.9 °C 994.1 hPa South 13.2 km/h 29 km/h 98 % 2.54 mm
11:52 13.3 °C 12.9 °C 993.8 hPa SSW 10.8 km/h 18.5 km/h 98 % 2.29 mm
11:57 13.4 °C 13.1 °C 993.5 hPa South 14.3 km/h 16.7 km/h 98 % 2.03 mm
12:02 13.5 °C 13.2 °C 993.5 hPa South 18 km/h 27.4 km/h 98 % 1.78 mm
12:07 13.6 °C 13.2 °C 993.1 hPa SSW 11.7 km/h 29 km/h 98 % 1.52 mm
12:12 13.6 °C 13.3 °C 993.1 hPa South 16.3 km/h 33.3 km/h 98 % 1.52 mm
12:17 13.6 °C 13.3 °C 993.1 hPa SSW 13.8 km/h 31.5 km/h 98 % 1.27 mm
12:23 13.6 °C 13.3 °C 992.4 hPa SE 14.3 km/h 29.6 km/h 98 % 1.02 mm
12:28 13.6 °C 13.2 °C 992.1 hPa SSW 9.3 km/h 22.5 km/h 98 % 0.76 mm
12:33 13.4 °C 13.1 °C 992.1 hPa South 11.6 km/h 27.8 km/h 98 % 0.76 mm
12:38 13.4 °C 13.1 °C 992.4 hPa South 9.5 km/h 27.8 km/h 98 % 0.51 mm
12:43 13.4 °C 13.1 °C 992.4 hPa South 13.2 km/h 20.4 km/h 98 % 0.51 mm
12:48 13.3 °C 13 °C 992.4 hPa SSE 12.4 km/h 18.5 km/h 98 % 0.25 mm
12:53 13.3 °C 12.9 °C 992.4 hPa SW 10.1 km/h 20.4 km/h 98 % 0.25 mm
13:03 13.2 °C 12.8 °C 992.1 hPa SSW 13.5 km/h 18.5 km/h 98 % 0.25 mm
13:08 13.1 °C 12.8 °C 992.1 hPa South 16.9 km/h 27.8 km/h 98 % 0.25 mm
13:13 13.1 °C 12.7 °C 991.8 hPa SSW 12.1 km/h 25.9 km/h 98 % 0 mm
13:16 13 °C 12.7 °C 991.8 hPa SSW 9.3 km/h 18.5 km/h 98 % 0 mm
13:21 12.9 °C 12.6 °C 991.4 hPa South 12.6 km/h 25.9 km/h 98 % 0 mm
13:27 12.8 °C 12.3 °C 991.4 hPa South 12.1 km/h 18.5 km/h 97 % 0 mm
13:32 12.8 °C 12.3 °C 991.4 hPa SSW 8.2 km/h 18.5 km/h 97 % 0 mm
13:37 12.7 °C 12.3 °C 991.8 hPa SSW 11.4 km/h 24.1 km/h 97 % 0 mm
13:42 12.7 °C 12.3 °C 991.8 hPa SW 11.1 km/h 22.2 km/h 97 % 0 mm
13:47 12.7 °C 12.3 °C 991.8 hPa WSW 9.3 km/h 22.2 km/h 97 % 0 mm
13:52 12.7 °C 12.3 °C 991.8 hPa WSW 8 km/h 12.9 km/h 97 % 0 mm
13:57 12.8 °C 12.5 °C 991.4 hPa SW 8.7 km/h 14.8 km/h 98 % 0 mm
14:02 12.9 °C 12.6 °C 991.4 hPa SSW 6.9 km/h 9.7 km/h 98 % 0 mm
14:07 12.9 °C 12.6 °C 991.1 hPa SSW 3.5 km/h 11.3 km/h 98 % 0 mm
14:12 13 °C 12.7 °C 991.1 hPa South 8.9 km/h 13 km/h 98 % 0 mm
14:22 13 °C 12.7 °C 991.1 hPa WSW 1.3 km/h 4.8 km/h 98 % 0 mm
14:27 13.1 °C 12.7 °C 990.7 hPa SW 0.6 km/h 5.6 km/h 98 % 0 mm
14:32 13.2 °C 12.8 °C 990.7 hPa WSW 3.2 km/h 5.6 km/h 98 % 0 mm
14:37 13.2 °C 12.9 °C 990.7 hPa SW 4.5 km/h 5.6 km/h 98 % 0 mm
14:42 13.3 °C 12.9 °C 990.7 hPa SW 0.3 km/h 5.6 km/h 98 % 0 mm
14:47 13.3 °C 12.9 °C 990.7 hPa WSW 4.8 km/h 5.6 km/h 98 % 0 mm
14:52 13.3 °C 12.9 °C 990.7 hPa SW 5.6 km/h 5.6 km/h 98 % 0 mm
14:58 13.3 °C 13 °C 990.7 hPa SW 0.2 km/h 3.7 km/h 98 % 0 mm
15:03 13.3 °C 13 °C 991.1 hPa WNW 2.6 km/h 5.6 km/h 98 % 0 mm
15:13 13.3 °C 12.9 °C 991.4 hPa SW 4.7 km/h 9.3 km/h 98 % 0 mm
15:18 13.3 °C 12.8 °C 991.1 hPa SW 3.2 km/h 5.6 km/h 97 % 0 mm
15:23 13.3 °C 12.9 °C 991.1 hPa SW 0.5 km/h 3.7 km/h 97 % 0 mm
15:33 13.3 °C 12.9 °C 991.4 hPa WSW 3.2 km/h 5.6 km/h 97 % 0 mm
15:38 13.3 °C 12.9 °C 991.4 hPa West 0.8 km/h 5.6 km/h 97 % 0 mm
15:43 13.3 °C 12.9 °C 991.4 hPa West 0.5 km/h 1.6 km/h 97 % 0 mm
15:48 13.3 °C 12.9 °C 991.4 hPa West 1 km/h 3.7 km/h 97 % 0 mm
15:53 13.3 °C 12.8 °C 991.4 hPa Calm   1.9 km/h 97 % 0 mm
16:03 13.2 °C 12.8 °C 991.8 hPa Calm     97 % 0 mm
16:08 13.2 °C 12.7 °C 992.1 hPa WSW 1.8 km/h 7.4 km/h 97 % 0 mm
16:13 13 °C 12.6 °C 992.1 hPa WSW 1.8 km/h 5.6 km/h 97 % 0 mm
16:18 12.8 °C 12.2 °C 992.1 hPa WSW 1.3 km/h 11.1 km/h 96 % 0 mm
16:23 12.7 °C 12.1 °C 992.4 hPa WSW 2.3 km/h 3.7 km/h 96 % 0 mm
16:34 12.6 °C 11.9 °C 992.4 hPa WSW 0.6 km/h 3.7 km/h 96 % 0 mm
16:39 12.5 °C 11.9 °C 992.4 hPa WSW 0.3 km/h 1.9 km/h 96 % 0 mm
16:44 12.4 °C 11.7 °C 992.4 hPa Calm     95 % 0 mm
16:54 12.2 °C 11.4 °C 992.4 hPa Calm   1.9 km/h 95 % 0 mm
16:59 12.2 °C 11.4 °C 992.8 hPa WSW 1.4 km/h 3.7 km/h 95 % 0 mm
17:04 12.1 °C 11.3 °C 992.8 hPa SW 3.1 km/h 5.6 km/h 95 % 0 mm
17:09 12.1 °C 11.3 °C 993.1 hPa WSW 1 km/h 5.6 km/h 95 % 0 mm
17:14 12 °C 11.4 °C 993.1 hPa WSW 0.2 km/h 4.8 km/h 96 % 0 mm
17:19 12 °C 11.4 °C 993.5 hPa WSW 5 km/h 7.4 km/h 96 % 0 mm
17:29 12.1 °C 11.4 °C 993.8 hPa NW 2.7 km/h 5.6 km/h 96 % 0 mm
17:34 12.1 °C 11.4 °C 994.5 hPa Calm   5.6 km/h 96 % 0 mm
17:39 11.8 °C 11.2 °C 994.1 hPa WNW 12.9 km/h 19.3 km/h 96 % 0 mm
17:49 11.4 °C 10.6 °C 994.8 hPa WSW 5.5 km/h 9.3 km/h 95 % 0 mm
17:54 11.2 °C 10.4 °C 994.5 hPa WNW 3.7 km/h 7.4 km/h 95 % 0 mm
18:00 11.1 °C 10.3 °C 994.8 hPa West 6 km/h 7.4 km/h 95 % 0 mm
18:05 10.9 °C 10.2 °C 994.5 hPa WNW 5.5 km/h 14.8 km/h 95 % 0 mm
18:10 10.8 °C 10 °C 994.5 hPa NW 12.1 km/h 12.9 km/h 95 % 0 mm
18:15 10.6 °C 9.6 °C 994.5 hPa West 5.3 km/h 13 km/h 94 % 0 mm
18:20 10.3 °C 9.4 °C 994.8 hPa SSE 1.9 km/h 13 km/h 94 % 0 mm
18:25 10.2 °C 9.1 °C 994.8 hPa West 2.3 km/h 5.6 km/h 93 % 0 mm
18:30 10 °C 8.9 °C 994.8 hPa WSW 3.1 km/h 5.6 km/h 93 % 0 mm
18:35 9.8 °C 8.6 °C 994.8 hPa WSW 9 km/h 14.5 km/h 92 % 0 mm
18:40 9.6 °C 8.2 °C 994.5 hPa SW 3.9 km/h 7.4 km/h 91 % 0 mm
18:45 9.4 °C 7.8 °C 994.8 hPa WSW 7.7 km/h 13 km/h 90 % 0 mm
18:50 9.2 °C 7.6 °C 994.8 hPa SW 9.8 km/h 17.7 km/h 90 % 0 mm
18:55 9 °C 7.4 °C 994.8 hPa WSW 5 km/h 11.1 km/h 90 % 0 mm
19:00 8.9 °C 7.3 °C 994.8 hPa West 6.8 km/h 9.7 km/h 90 % 0 mm
19:05 8.8 °C 7.1 °C 994.8 hPa WSW 3.9 km/h 7.4 km/h 89 % 0 mm
19:10 8.8 °C 7.2 °C 994.8 hPa SW 3.1 km/h 5.6 km/h 90 % 0 mm
19:15 8.7 °C 7.1 °C 994.8 hPa SW 3.5 km/h 7.4 km/h 90 % 0 mm
19:20 8.7 °C 7.1 °C 995.1 hPa WSW 2.3 km/h 9.3 km/h 90 % 0 mm
19:25 8.6 °C 7 °C 995.1 hPa SW 6.9 km/h 6.9 km/h 90 % 0 mm
19:36 8.3 °C 6.6 °C 995.1 hPa WSW 10.3 km/h 16.7 km/h 89 % 0 mm
19:41 8.3 °C 6.4 °C 995.1 hPa WSW 4.8 km/h 14.5 km/h 88 % 0 mm
19:46 8.2 °C 6.3 °C 995.5 hPa SW 5.3 km/h 9.3 km/h 88 % 0 mm
19:51 8.2 °C 6.3 °C 995.5 hPa WSW 4.8 km/h 11.3 km/h 88 % 0 mm
19:56 8.1 °C 6.2 °C 995.5 hPa WSW 3.2 km/h 9.7 km/h 88 % 0 mm
20:01 8.1 °C 6.2 °C 995.5 hPa SW 9.7 km/h 9.7 km/h 88 % 0 mm
20:06 8 °C 5.9 °C 995.5 hPa WSW 3.2 km/h 16.1 km/h 87 % 0 mm
20:11 8 °C 5.8 °C 995.5 hPa WSW 4.8 km/h 20.9 km/h 86 % 0 mm
20:16 8 °C 5.6 °C 995.5 hPa West 12.7 km/h 22.5 km/h 85 % 0 mm
20:21 8.1 °C 5.5 °C 995.5 hPa WSW 16.1 km/h 29 km/h 84 % 0 mm
20:26 8.1 °C 5.5 °C 995.8 hPa West 8 km/h 20.9 km/h 84 % 0 mm
20:31 8.1 °C 5.2 °C 995.8 hPa WSW 16.1 km/h 29.6 km/h 82 % 0 mm
20:41 8 °C 4.6 °C 996.2 hPa West 12.9 km/h 27.4 km/h 79 % 0 mm
20:46 7.9 °C 4.3 °C 996.2 hPa WSW 11.3 km/h 24.1 km/h 78 % 0 mm
21:01 7.7 °C 3.6 °C 996.5 hPa NW 12.9 km/h 29.6 km/h 75 % 0 mm
21:06 7.7 °C 3.1 °C 996.5 hPa SW 14.5 km/h 29.6 km/h 73 % 0 mm
21:16 7.6 °C 3 °C 996.8 hPa WSW 16.1 km/h 31.5 km/h 73 % 0 mm
21:21 7.5 °C 2.6 °C 996.8 hPa SW 9.7 km/h 25.9 km/h 71 % 0 mm
21:26 7.4 °C 2.5 °C 996.8 hPa SSW 6.4 km/h 18.5 km/h 71 % 0 mm
21:31 7.3 °C 2.2 °C 997.2 hPa WSW 6.3 km/h 18.5 km/h 70 % 0 mm
21:36 7.3 °C 1.9 °C 997.2 hPa NW 12.6 km/h 22.2 km/h 69 % 0 mm
21:41 7.2 °C 1.8 °C 996.8 hPa WSW 8.2 km/h 18.5 km/h 69 % 0 mm
21:46 7.2 °C 1.7 °C 997.2 hPa WNW 14.3 km/h 27.8 km/h 68 % 0 mm
21:51 7.2 °C 1.4 °C 997.2 hPa WNW 10.9 km/h 22.2 km/h 67 % 0 mm
21:56 7.1 °C 1.6 °C 997.2 hPa WNW 12.7 km/h 24.1 km/h 68 % 0 mm
22:01 7.1 °C 1.3 °C 997.2 hPa NNW 7.1 km/h 18.5 km/h 67 % 0 mm
22:06 7.1 °C 1.3 °C 997.2 hPa WSW 15 km/h 16.7 km/h 67 % 0 mm
22:11 7.1 °C 1.3 °C 997.5 hPa WSW 11.3 km/h 14.5 km/h 67 % 0 mm
22:16 7 °C 1.5 °C 997.5 hPa SW 4.3 km/h 7.4 km/h 68 % 0 mm
22:21 6.9 °C 1.4 °C 997.5 hPa WSW 10.1 km/h 13 km/h 68 % 0 mm
22:26 6.8 °C 1.3 °C 997.5 hPa West 13.5 km/h 18.5 km/h 68 % 0 mm
22:31 6.7 °C 1.2 °C 997.5 hPa WSW 6.6 km/h 19.3 km/h 68 % 0 mm
22:36 6.6 °C 1.3 °C 997.5 hPa West 9.8 km/h 16.7 km/h 69 % 0 mm
22:42 6.4 °C 1.2 °C 997.5 hPa SW 9.3 km/h 16.7 km/h 69 % 0 mm
22:47 6.4 °C 1.3 °C 997.5 hPa WSW 8.4 km/h 19.3 km/h 70 % 0 mm
22:52 6.3 °C 1 °C 997.5 hPa SW 11.3 km/h 24.1 km/h 69 % 0 mm
22:57 6.2 °C 1.1 °C 997.5 hPa SSW 10.6 km/h 16.7 km/h 70 % 0 mm
23:02 6.2 °C 1.1 °C 997.5 hPa WSW 2.7 km/h 9.7 km/h 70 % 0 mm
23:07 6.1 °C 1 °C 997.9 hPa WSW 5.5 km/h 13 km/h 70 % 0 mm
23:12 6.1 °C 1 °C 997.5 hPa WSW 10.6 km/h 24.1 km/h 70 % 0 mm
23:22 6.1 °C 1.2 °C 997.9 hPa WSW 6.1 km/h 14.8 km/h 71 % 0 mm
23:27 6 °C 0.9 °C 997.9 hPa WSW 7.9 km/h 13 km/h 70 % 0 mm
23:32 5.9 °C 0.9 °C 997.9 hPa West 5.1 km/h 13 km/h 70 % 0 mm
23:37 5.9 °C 1.1 °C 997.9 hPa WSW 5.5 km/h 8 km/h 71 % 0 mm
23:47 5.8 °C 1 °C 997.9 hPa SW 4.3 km/h 17.7 km/h 71 % 0 mm
23:52 5.8 °C 0.9 °C 997.9 hPa SW 9.5 km/h 18.5 km/h 71 % 0 mm
23:57 5.7 °C 1.1 °C 997.9 hPa West 9.3 km/h 18.5 km/h 72 % 0 mm
Crab Meadow Weather
Compliments of Weather Underground - 2.75 mb

Script developed by  Jim McMurry - jmcmurry@mwt.net Adapted for the template by  Wim van der Kuil - Leuven-Template.eu

Astronomy: It takes 16 million horsepower to break loose from the Earth's gravitational pull.